Weather History for Fitchburg, MA

Change the Weather History Date:

Friday, May 16, 2014

  Actual Average (KORH) Record (KORH)
Temperature  
Mean Temperature 67 °F 56 °F  
Max Temperature 70 °F 66 °F 89 °F (1932)
Min Temperature 64 °F 47 °F 30 °F (1947)
Degree Days  
Heating Degree Days 0 9  
Month to date heating degree days 179  
Since 1 July heating degree days 6526  
Cooling Degree Days 2 1  
Month to date cooling degree days 1  
Year to date cooling degree days 4  
Growing Degree Days 17 (Base 50)    
Moisture  
Dew Point 62 °F    
Average Humidity 86    
Maximum Humidity 93    
Minimum Humidity 71    
Precipitation  
Precipitation 0.22 in 0.13 in 2.79 in (2007)
Month to date precipitation 2.01  
Year to date precipitation 17.05  
Snow  
Snow 0.00 in 0.00 in T in (1984)
Month to date snowfall 0.0  
Since 1 July snowfall 64.1  
Snow Depth -    
Sea Level Pressure  
Sea Level Pressure 30.07 in    
Wind  
Wind Speed 12 mph (SSE)    
Max Wind Speed 22 mph    
Max Gust Speed 28 mph    
Visibility 6 miles    
Events Rain    
T = Trace of Precipitation, MM = Missing Value Source: NWS Daily Summary

Daily Weather History Graph

Daily Weather History Graph

Search for Another Location

Airport:

Trip Planner

Search our weather history database for the weather conditions in past years. The results will help you decide how hot, cold, wet, or windy it might be!

Date:

Astronomy

May. 16, 2014 Rise Set
Actual Time 5:24 AM EDT 8:03 PM EDT
Civil Twilight 4:51 AM EDT 8:35 PM EDT
Nautical Twilight 4:11 AM EDT 9:16 PM EDT
Astronomical Twilight 3:24 AM EDT 10:03 PM EDT
Moon 10:07 PM EDT (5/16) 7:02 AM EDT (5/16)
Length of Visible Light 15h 44m
Length of Day
14h 39m
Waning Gibbous, 95% of the Moon is Illuminated
May 16
Waning Gibbous
May 21
Last Quarter
May 28
New
Jun 5
First Quarter
Jun 13
Full

Hourly Weather History & Observations

Time (EDT) Temp. Dew Point Humidity Pressure Visibility Wind Dir Wind Speed Gust Speed Precip Events Conditions
12:52 AM 64.0 °F 62.1 °F 93% 30.18 in 3.0 mi SSE 9.2 mph - 0.00 in   Overcast
2:52 AM 64.9 °F 61.0 °F 87% 30.15 in 9.0 mi SE 9.2 mph - N/A   Overcast
3:18 AM 64.9 °F 60.1 °F 84% 30.15 in 9.0 mi SSE 8.1 mph - N/A   Overcast
4:26 AM 64.9 °F 60.1 °F 84% 30.14 in 10.0 mi SSE 9.2 mph - N/A   Overcast
4:36 AM 64.9 °F 59.0 °F 81% 30.14 in 10.0 mi SSE 9.2 mph - N/A   Overcast
4:52 AM 64.9 °F 59.0 °F 81% 30.14 in 10.0 mi SE 9.2 mph - N/A   Overcast
5:52 AM 64.9 °F 59.0 °F 81% 30.12 in 9.0 mi SE 8.1 mph - N/A   Overcast
6:52 AM 64.9 °F 59.0 °F 81% 30.13 in 9.0 mi SSE 9.2 mph - N/A   Overcast
7:47 AM 66.2 °F 59.0 °F 78% 30.11 in 9.0 mi SSE 11.5 mph - N/A   Overcast
7:52 AM 66.9 °F 59.0 °F 76% 30.11 in 9.0 mi SE 15.0 mph - N/A   Overcast
8:52 AM 68.0 °F 59.0 °F 73% 30.09 in 9.0 mi SSE 15.0 mph 20.7 mph N/A   Overcast
9:42 AM 66.0 °F 61.0 °F 84% 30.09 in 2.5 mi SSE 12.7 mph - 0.00 in Rain Light Rain
9:49 AM 66.2 °F 62.6 °F 88% 30.09 in 6.0 mi SSE 11.5 mph - 0.00 in Rain Light Rain
9:52 AM 66.0 °F 62.1 °F 87% 30.10 in 8.0 mi SSE 10.4 mph - 0.00 in   Overcast
10:52 AM 70.0 °F 60.1 °F 71% 30.08 in 10.0 mi SE 21.9 mph 27.6 mph N/A   Overcast
11:52 AM 68.0 °F 62.1 °F 81% 30.08 in 4.0 mi SSE 17.3 mph 27.6 mph 0.00 in Rain Light Rain
12:33 PM 66.9 °F 62.1 °F 84% 30.07 in 2.0 mi SSE 16.1 mph 26.5 mph 0.02 in Rain Rain
12:40 PM 66.0 °F 63.0 °F 90% 30.07 in 1.2 mi SSE 11.5 mph - 0.05 in Rain Rain
12:42 PM 66.0 °F 63.0 °F 90% 30.07 in 1.0 mi SSE 11.5 mph - 0.06 in Rain Rain
12:47 PM 66.2 °F 62.6 °F 88% 30.07 in 1.2 mi SSE 12.7 mph 18.4 mph 0.08 in Rain Rain
12:52 PM 66.0 °F 63.0 °F 90% 30.07 in 1.2 mi SSE 18.4 mph 24.2 mph 0.09 in Rain Rain
1:05 PM 66.0 °F 63.0 °F 90% 30.07 in 1.8 mi SSE 16.1 mph - 0.02 in Rain Light Rain
1:18 PM 64.9 °F 62.1 °F 90% 30.07 in 2.0 mi SSE 15.0 mph 25.3 mph 0.04 in Rain Rain
1:25 PM 64.9 °F 62.1 °F 90% 30.07 in 2.5 mi SSE 15.0 mph 20.7 mph 0.06 in Rain Rain
1:36 PM 64.9 °F 62.1 °F 90% 30.07 in 1.5 mi South 11.5 mph - 0.09 in Rain Rain
1:44 PM 64.9 °F 62.1 °F 90% 30.07 in 2.0 mi SSE 10.4 mph - 0.10 in Rain Light Rain
1:52 PM 64.9 °F 63.0 °F 93% 30.06 in 2.0 mi SSE 11.5 mph - 0.11 in Rain Rain
2:06 PM 64.9 °F 63.0 °F 93% 30.06 in 4.0 mi SSE 11.5 mph - 0.00 in Rain Light Rain
2:20 PM 66.0 °F 63.0 °F 90% 30.06 in 4.0 mi SSE 11.5 mph - 0.01 in Rain Light Rain
2:38 PM 66.0 °F 62.1 °F 87% 30.06 in 5.0 mi SSE 16.1 mph 20.7 mph 0.01 in Rain Light Rain
2:52 PM 66.0 °F 62.1 °F 87% 30.05 in 8.0 mi SSE 12.7 mph 21.9 mph 0.01 in   Overcast
3:17 PM 66.0 °F 63.0 °F 90% 30.04 in 8.0 mi SSE 11.5 mph - N/A   Overcast
3:29 PM 66.0 °F 63.0 °F 90% 30.04 in 5.0 mi SSE 11.5 mph - 0.00 in Rain Light Rain
4:21 PM 66.0 °F 62.1 °F 87% 30.03 in 7.0 mi South 12.7 mph 21.9 mph 0.00 in Rain Light Rain
4:52 PM 66.0 °F 63.0 °F 90% 30.03 in 7.0 mi SSE 11.5 mph - 0.00 in Rain Light Rain
5:52 PM 66.0 °F 63.0 °F 90% 30.01 in 7.0 mi SSE 12.7 mph - 0.00 in   Overcast
6:52 PM 66.0 °F 63.0 °F 90% 30.01 in 6.0 mi SSE 12.7 mph - 0.00 in Rain Light Rain
7:24 PM 66.0 °F 62.1 °F 87% 30.00 in 10.0 mi SSE 11.5 mph - 0.00 in   Overcast
7:52 PM 66.0 °F 62.1 °F 87% 30.01 in 9.0 mi SSE 16.1 mph 23.0 mph 0.00 in   Overcast
8:52 PM 64.9 °F 62.1 °F 90% 30.01 in 6.0 mi SSE 11.5 mph - N/A   Overcast
9:52 PM 66.0 °F 62.1 °F 87% 30.00 in 9.0 mi SSE 13.8 mph - 0.01 in   Overcast
11:52 PM 66.0 °F 63.0 °F 90% 29.96 in 8.0 mi SSE 15.0 mph - N/A   Overcast